Regional Weather Roundup
Issued by NWS Kansas City/Pleasant Hill, MO

Home | Current Version | Previous Version | Graphics & Text | Print | Product List | Glossary Off
Versions: 1 2 3 4 5 6 7 8 9 10 11 12 13 14 15 16 17 18 19 20 21 22 23 24 25 26 27 28 29 30 31 32 33 34 35 36 37 38 39 40 41 42 43 44 45 46 47 48 49 50

000
ASUS43 KEAX 040811
RWREAX

WEATHER ROUNDUP FOR EASTERN KANSAS AND NORTHWEST MISSOURI
NATIONAL WEATHER SERVICE KANSAS CITY/PLEASANT HILL MO
200 AM CST WED MAR 04 2015

KSZ040-057-103>105-MOZ028-029-037-043-040900-
...KANSAS CITY METROPOLITAN AREA...

CITY           SKY/WX    TMP DP  RH WIND       PRES   REMARKS
K.C. INTL      CLOUDY    22  12  65 N16       30.13R WCI   8
K.C. DOWNTOWN  PTCLDY    26  15  63 N15       30.12R WCI  14
LEES SUMMIT    CLOUDY    27  17  66 N16       30.09R WCI  15
OLATHE - IXD   MOCLDY    25  15  66 N21       30.09R WCI  11
OLATHE - OJC   MOCLDY    26  15  63 N18G24    30.06S WCI  13
LAWRENCE       MOCLDY    23  10  57 N16G29    30.13R WCI  10

$$

MOZ001>008-011>017-020>025-030>033-038>040-044>046-053-054-040900-
...NORTHERN AND CENTRAL MISSOURI...

CITY           SKY/WX    TMP DP  RH WIND       PRES   REMARKS
ST. JOSEPH     PTCLDY    18   7  62 N20G28    30.19R WCI   2
MOSBY          CLOUDY    27  16  63 N20       30.14R WCI  13
WARRENSBURG    CLOUDY    30  23  74 N13G20    30.08R WCI  20
WHITEMAN AFB   CLOUDY    30  25  80 N12       30.05R WCI  21
CLINTON        CLOUDY    32  28  86 N15       30.05S WCI  22
SEDALIA        CLOUDY    32  25  75 N14       30.06R WCI  22
WARSAW         NOT AVBL
MARSHALL       CLOUDY    34  27  75 N12G20    30.05R WCI  25
CHILLICOTHE      N/A     23  14  68 N13G23    30.13R WCI  11
KIRKSVILLE     NOT AVBL

$$

MOZ041-047>049-056>058-063>065-088>090-097-040900-
...EASTERN AND SOUTHERN MISSOURI...

CITY           SKY/WX    TMP DP  RH WIND       PRES   REMARKS
ST. LOUIS INTL LGTSLEET  35  29  78 NW5       29.98S WCI  31
SPIRIT OF STL  CLOUDY    35  33  92 NW3       29.98R
COLUMBIA       CLOUDY    33  28  81 N13       30.01R WCI  24
JEFFERSON CITY CLOUDY    36  29  75 N6        30.01S WCI  31
MEXICO         CLOUDY    32  28  86 N13       30.02R WCI  22
HANNIBAL       MOCLDY    27  14  59 NW12      30.06R WCI  16
ROLLA          CLOUDY    33  31  92 N8        29.94S FOG     WCI  26
OSAGE BEACH    CLOUDY    34  30  86 NW6       29.99S WCI  29
SPRINGFIELD    CLOUDY    35  32  88 N14       29.94R WCI  26
BRANSON        FOG       43  41  93 CALM      29.90R VSB 3/4
NEVADA         CLOUDY    32  30  93 N14       30.02S WCI  22
JOPLIN         CLOUDY    35  31  85 N13G22    29.98R WCI  26
WEST PLAINS    LGT RAIN  41  39  93 NE7       29.89F FOG

$$

IAZ060-094-KSZ022-034>040-054-083-096-NEZ052-066-093-040900-
...KANSAS...SOUTHEAST NEBRASKA AND IOWA...

CITY           SKY/WX    TMP DP  RH WIND       PRES   REMARKS
TOPEKA         CLOUDY    23   9  55 N21G29    30.16R WCI   8
MANHATTAN      CLOUDY    22   7  52 N15G28    30.18R WCI   9
EMPORIA        CLOUDY    25  12  58 N18G25    30.09R WCI  11
CHANUTE        CLOUDY    32  24  72 N14       30.02S WCI  22
WICHITA        FLURRIES  30  17  58 N18G26    30.06R WCI  18
OMAHA          LGT SNOW  17   9  70 N15       30.20R WCI   2
LINCOLN        LGT SNOW  18  14  84 N8        30.20S FOG     WCI   8
FALLS CITY     CLOUDY    20   7  57 N12       30.18R WCI   8
LAMONI         PTCLDY    14   7  73 N12       30.13R WCI   0
DES MOINES     CLOUDY    15   3  59 N9        30.14R WCI   3

$$




USA.gov is the U.S. government's official web portal to all federal, state and local government web resources and services.